Weather History for KNCA - October, 2011

Change the Weather History Date:

Monday, October 17, 2011

  Actual Average Record
Temperature  
Mean Temperature 72 °F -  
Max Temperature 84 °F 71 °F 84 °F (2011)
Min Temperature 60 °F 50 °F 42 °F (2001)
Cooling Degree Days 7    
Growing Degree Days 22 (Base 50)    
Moisture  
Dew Point 56 °F    
Average Humidity 65    
Maximum Humidity 96    
Minimum Humidity 32    
Precipitation  
Precipitation 0.00 in - - ()
Sea Level Pressure  
Sea Level Pressure 29.96 in    
Wind  
Wind Speed 8 mph (SW)    
Max Wind Speed 13 mph    
Max Gust Speed 16 mph    
Visibility 10 miles    
Events      
Averages and records for this station are not official NWS values.
T = Trace of Precipitation, MM = Missing Value Source: NWS Daily Summary

Daily Weather History Graph

Daily Weather History Graph

Search for Another Location

Airport or City:

Trip Planner

Search our weather history database for the weather conditions in past years. The results will help you decide how hot, cold, wet, or windy it might be!

Date:

Astronomy

Oct. 17, 2011 Rise Set
Actual Time 7:16 AM EDT 6:32 PM EDT
Civil Twilight 6:51 AM EDT 6:58 PM EDT
Nautical Twilight 6:22 AM EDT 7:27 PM EDT
Astronomical Twilight 5:52 AM EDT 7:56 PM EDT
Moon 10:21 PM EDT (10/17) 12:11 PM EDT (10/17)
Length of Visible Light 12h 06m
Length of Day
11h 16m
Waning Gibbous, 74% of the Moon is Illuminated
Oct 17
Waning Gibbous
Oct 19
Last Quarter
Oct 26
New
Nov 2
First Quarter
Nov 10
Full

Hourly Weather History & Observations

Time (EDT) Temp. Heat Index Dew Point Humidity Pressure Visibility Wind Dir Wind Speed Gust Speed Precip Events Conditions
12:56 AM 62.1 °F - 52.0 °F 70% 30.04 in 10.0 mi SW 5.8 mph - N/A   Clear
1:56 AM 61.0 °F - 53.1 °F 75% 30.02 in 10.0 mi SW 5.8 mph - N/A   Clear
2:56 AM 60.1 °F - 54.0 °F 80% 30.00 in 10.0 mi SW 5.8 mph - N/A   Clear
3:56 AM 61.0 °F - 55.0 °F 81% 29.99 in 10.0 mi SW 10.4 mph - N/A   Clear
4:56 AM 61.0 °F - 54.0 °F 78% 29.99 in 10.0 mi WSW 9.2 mph - N/A   Clear
5:56 AM 61.0 °F - 52.0 °F 72% 29.99 in 10.0 mi SW 9.2 mph - N/A   Clear
6:56 AM 61.0 °F - 50.0 °F 67% 29.98 in 10.0 mi SW 10.4 mph - N/A   Clear
7:56 AM 62.1 °F - 51.1 °F 67% 29.99 in 10.0 mi WSW 9.2 mph - N/A   Clear
8:56 AM 64.9 °F - 51.1 °F 61% 30.00 in 10.0 mi WSW 12.7 mph - N/A   Clear
9:56 AM 69.1 °F - 52.0 °F 54% 30.01 in 10.0 mi WSW 9.2 mph - N/A   Clear
10:56 AM 73.9 °F - 54.0 °F 50% 30.01 in 10.0 mi West 6.9 mph - N/A   Clear
11:56 AM 77.0 °F - 54.0 °F 45% 30.00 in 10.0 mi West 10.4 mph - N/A   Clear
12:56 PM 80.1 °F 80.1 °F 55.0 °F 42% 29.97 in 10.0 mi West 8.1 mph - N/A   Clear
1:56 PM 82.0 °F 81.3 °F 54.0 °F 38% 29.93 in 10.0 mi SW 9.2 mph - N/A   Clear
2:56 PM 84.0 °F 82.6 °F 54.0 °F 35% 29.91 in 10.0 mi WSW 10.4 mph - N/A   Clear
3:56 PM 84.9 °F - 52.0 °F 32% 29.90 in 10.0 mi SW 8.1 mph - N/A   Clear
4:56 PM 81.0 °F 82.2 °F 63.0 °F 54% 29.89 in 10.0 mi South 8.1 mph - N/A   Clear
5:56 PM 75.0 °F - 62.1 °F 64% 29.89 in 10.0 mi South 6.9 mph 16.1 mph N/A   Clear
6:56 PM 70.0 °F - 62.1 °F 76% 29.89 in 10.0 mi South 6.9 mph - N/A   Clear
7:56 PM 68.0 °F - 61.0 °F 78% 29.91 in 10.0 mi SSW 3.5 mph - N/A   Clear
8:56 PM 66.9 °F - 61.0 °F 81% 29.91 in 10.0 mi South 5.8 mph - N/A   Clear
9:56 PM 66.9 °F - 62.1 °F 84% 29.93 in 10.0 mi SSW 9.2 mph - N/A   Clear
10:56 PM 66.0 °F - 62.1 °F 87% 29.94 in 10.0 mi SW 5.8 mph - N/A   Clear
11:56 PM 62.1 °F - 61.0 °F 96% 29.93 in 10.0 mi Calm Calm - N/A   Clear